Time,TemperatureF,DewpointF,PressureIn,WindDirection,WindDirectionDegrees,WindSpeedMPH,WindSpeedGustMPH,Humidity,HourlyPrecipIn,Conditions,Clouds,dailyrainin,SoftwareType,DateUTC
2013-01-25 00:03:00,4.8,1.6,30.16,ENE,68,9.2,9.2,86,0.00,CLR,SKC,0.00,WeatherDisplay:10.37,2013-01-25 06:03:00,
2013-01-25 00:08:00,5.0,1.7,30.15,South,180,13.8,13.8,86,0.00,CLR,SKC,0.00,WeatherDisplay:10.37,2013-01-25 06:08:00,
2013-01-25 00:13:00,5.0,1.7,30.15,South,180,10.4,10.4,86,0.00,CLR,SKC,0.00,WeatherDisplay:10.37,2013-01-25 06:13:00,
2013-01-25 00:18:00,5.0,1.5,30.14,South,180,8.1,8.1,85,0.00,CLR,SKC,0.00,WeatherDisplay:10.37,2013-01-25 06:18:00,
2013-01-25 00:24:00,5.2,1.7,30.14,South,180,8.1,8.1,85,0.00,CLR,SKC,0.00,WeatherDisplay:10.37,2013-01-25 06:24:00,
2013-01-25 00:29:00,5.2,1.7,30.14,South,180,9.2,9.2,85,0.00,CLR,SKC,0.00,WeatherDisplay:10.37,2013-01-25 06:29:00,
2013-01-25 00:34:00,5.2,1.7,30.14,SW,225,9.2,9.2,85,0.00,CLR,SKC,0.00,WeatherDisplay:10.37,2013-01-25 06:34:00,
2013-01-25 00:39:00,5.2,1.7,30.13,South,180,15.0,15.0,85,0.00,CLR,SKC,0.00,WeatherDisplay:10.37,2013-01-25 06:39:00,
2013-01-25 00:45:00,5.4,1.8,30.13,South,180,11.5,11.5,85,0.00,CLR,SKC,0.00,WeatherDisplay:10.37,2013-01-25 06:45:00,
2013-01-25 00:50:00,5.4,1.8,30.13,South,180,8.1,8.1,85,0.00,CLR,SKC,0.00,WeatherDisplay:10.37,2013-01-25 06:50:00,
2013-01-25 00:55:00,5.5,2.0,30.13,SW,225,12.7,12.7,85,0.00,CLR,SKC,0.00,WeatherDisplay:10.37,2013-01-25 06:55:00,
2013-01-25 01:00:00,5.5,2.0,30.12,South,180,12.7,12.7,85,0.00,CLR,SKC,0.00,WeatherDisplay:10.37,2013-01-25 07:00:00,
2013-01-25 01:06:00,5.5,2.0,30.11,South,180,4.6,4.6,85,0.00,CLR,SKC,0.00,WeatherDisplay:10.37,2013-01-25 07:06:00,
2013-01-25 01:11:00,5.9,2.1,30.11,South,180,10.4,10.4,84,0.00,CLR,SKC,0.00,WeatherDisplay:10.37,2013-01-25 07:11:00,
2013-01-25 01:16:00,5.9,2.1,30.11,SSW,202,12.7,12.7,84,0.00,CLR,SKC,0.00,WeatherDisplay:10.37,2013-01-25 07:16:00,
2013-01-25 01:21:00,5.9,2.1,30.11,SW,225,12.7,12.7,84,0.00,CLR,SKC,0.00,WeatherDisplay:10.37,2013-01-25 07:21:00,
2013-01-25 01:26:00,5.9,2.1,30.11,South,180,12.7,12.7,84,0.00,CLR,SKC,0.00,WeatherDisplay:10.37,2013-01-25 07:26:00,
2013-01-25 01:32:00,5.9,1.8,30.10,South,180,15.0,15.0,83,0.00,CLR,SKC,0.00,WeatherDisplay:10.37,2013-01-25 07:32:00,
2013-01-25 01:37:00,6.1,2.3,30.10,South,180,12.7,12.7,84,0.00,CLR,SKC,0.00,WeatherDisplay:10.37,2013-01-25 07:37:00,
2013-01-25 01:42:00,6.1,2.3,30.10,SW,225,10.4,10.4,84,0.00,CLR,SKC,0.00,WeatherDisplay:10.37,2013-01-25 07:42:00,
2013-01-25 01:47:00,6.1,2.3,30.09,South,180,10.7,10.7,84,0.00,CLR,SKC,0.00,WeatherDisplay:10.37,2013-01-25 07:47:00,
2013-01-25 01:52:00,6.1,2.5,30.08,SW,225,8.1,8.1,85,0.00,CLR,SKC,0.00,WeatherDisplay:10.37,2013-01-25 07:52:00,
2013-01-25 01:57:00,6.3,2.7,30.08,South,180,12.7,12.7,85,0.00,CLR,SKC,0.00,WeatherDisplay:10.37,2013-01-25 07:57:00,
2013-01-25 02:03:00,6.3,2.7,30.08,SSW,202,9.2,9.2,85,0.00,CLR,SKC,0.00,WeatherDisplay:10.37,2013-01-25 08:03:00,
2013-01-25 02:08:00,6.4,3.1,30.08,South,180,10.4,10.4,86,0.00,CLR,SKC,0.00,WeatherDisplay:10.37,2013-01-25 08:08:00,
2013-01-25 02:13:00,6.4,3.1,30.08,South,180,10.4,10.4,86,0.00,CLR,SKC,0.00,WeatherDisplay:10.37,2013-01-25 08:13:00,
2013-01-25 02:19:00,6.4,3.1,30.08,South,180,9.2,9.2,86,0.00,CLR,SKC,0.00,WeatherDisplay:10.37,2013-01-25 08:19:00,
2013-01-25 02:24:00,6.4,3.1,30.07,South,180,9.2,9.2,86,0.00,CLR,SKC,0.00,WeatherDisplay:10.37,2013-01-25 08:24:00,
2013-01-25 02:29:00,6.4,3.1,30.08,SW,225,9.2,9.2,86,0.00,CLR,SKC,0.00,WeatherDisplay:10.37,2013-01-25 08:29:00,
2013-01-25 02:34:00,6.6,3.3,30.07,SW,225,6.9,6.9,86,0.00,CLR,SKC,0.00,WeatherDisplay:10.37,2013-01-25 08:34:00,
2013-01-25 02:39:00,6.6,3.3,30.06,SE,135,8.1,8.1,86,0.00,CLR,SKC,0.00,WeatherDisplay:10.37,2013-01-25 08:39:00,
2013-01-25 02:45:00,6.6,3.3,30.06,South,180,8.1,8.1,86,0.00,CLR,SKC,0.00,WeatherDisplay:10.37,2013-01-25 08:45:00,
2013-01-25 02:50:00,6.6,3.3,30.06,South,180,6.9,6.9,86,0.00,CLR,SKC,0.00,WeatherDisplay:10.37,2013-01-25 08:50:00,
2013-01-25 02:55:00,6.6,3.6,30.05,South,180,9.2,9.2,87,0.00,CLR,SKC,0.00,WeatherDisplay:10.37,2013-01-25 08:55:00,
2013-01-25 03:00:00,6.6,3.6,30.05,South,180,5.8,5.8,87,0.00,CLR,SKC,0.00,WeatherDisplay:10.37,2013-01-25 09:00:00,
2013-01-25 03:05:00,6.6,3.6,30.04,SW,225,5.8,5.8,87,0.00,CLR,SKC,0.00,WeatherDisplay:10.37,2013-01-25 09:05:00,
2013-01-25 03:10:00,6.6,3.6,30.04,SW,225,5.8,5.8,87,0.00,CLR,SKC,0.00,WeatherDisplay:10.37,2013-01-25 09:10:00,
2013-01-25 03:16:00,6.6,3.6,30.04,SW,225,6.9,6.9,87,0.00,CLR,SKC,0.00,WeatherDisplay:10.37,2013-01-25 09:16:00,
2013-01-25 03:21:00,6.8,4.0,30.04,South,180,6.9,6.9,88,0.00,CLR,SKC,0.00,WeatherDisplay:10.37,2013-01-25 09:21:00,
2013-01-25 03:26:00,6.8,4.0,30.04,South,180,5.8,5.8,88,0.00,CLR,SKC,0.00,WeatherDisplay:10.37,2013-01-25 09:26:00,
2013-01-25 03:31:00,6.8,4.0,30.03,South,180,9.2,9.2,88,0.00,CLR,SKC,0.00,WeatherDisplay:10.37,2013-01-25 09:31:00,
2013-01-25 03:36:00,6.8,4.0,30.03,SW,225,4.6,4.6,88,0.00,CLR,SKC,0.00,WeatherDisplay:10.37,2013-01-25 09:36:00,
2013-01-25 03:41:00,6.8,4.0,30.02,South,180,3.5,3.5,88,0.00,CLR,SKC,0.00,WeatherDisplay:10.37,2013-01-25 09:41:00,
2013-01-25 03:46:00,6.8,4.0,30.02,SE,135,4.6,4.6,88,0.00,CLR,SKC,0.00,WeatherDisplay:10.37,2013-01-25 09:46:00,
2013-01-25 03:52:00,6.8,4.0,30.01,South,180,3.5,3.5,88,0.00,CLR,SKC,0.00,WeatherDisplay:10.37,2013-01-25 09:52:00,
2013-01-25 03:57:00,6.8,4.0,30.01,SE,135,9.2,9.2,88,0.00,CLR,SKC,0.00,WeatherDisplay:10.37,2013-01-25 09:57:00,
2013-01-25 04:02:00,7.0,4.2,30.00,South,180,4.6,4.6,88,0.00,CLR,SKC,0.00,WeatherDisplay:10.37,2013-01-25 10:02:00,
2013-01-25 04:08:00,7.0,4.2,30.00,SW,225,5.8,5.8,88,0.00,CLR,SKC,0.00,WeatherDisplay:10.37,2013-01-25 10:08:00,
2013-01-25 04:13:00,7.0,4.2,30.00,SE,135,3.8,3.8,88,0.00,CLR,SKC,0.00,WeatherDisplay:10.37,2013-01-25 10:13:00,
2013-01-25 04:18:00,7.0,4.4,30.00,SW,225,5.8,5.8,89,0.00,CLR,SKC,0.00,WeatherDisplay:10.37,2013-01-25 10:18:00,
2013-01-25 04:23:00,7.0,4.4,29.99,South,180,3.5,3.5,89,0.00,CLR,SKC,0.00,WeatherDisplay:10.37,2013-01-25 10:23:00,
2013-01-25 04:28:00,7.0,4.4,29.99,South,180,4.6,4.6,89,0.00,CLR,SKC,0.00,WeatherDisplay:10.37,2013-01-25 10:28:00,
2013-01-25 04:33:00,7.0,4.4,29.99,SE,135,3.5,3.5,89,0.00,CLR,SKC,0.00,WeatherDisplay:10.37,2013-01-25 10:33:00,
2013-01-25 04:39:00,7.0,4.4,29.98,South,180,3.8,3.8,89,0.00,CLR,SKC,0.00,WeatherDisplay:10.37,2013-01-25 10:39:00,
2013-01-25 04:44:00,7.0,4.4,29.97,SE,135,5.8,0.0,89,0.00,CLR,SKC,0.00,WeatherDisplay:10.37,2013-01-25 10:44:00,
2013-01-25 04:49:00,7.0,4.4,29.96,SW,225,3.5,0.0,89,0.00,CLR,SKC,0.00,WeatherDisplay:10.37,2013-01-25 10:49:00,
2013-01-25 04:54:00,7.0,4.4,29.96,South,180,3.5,3.5,89,0.00,CLR,SKC,0.00,WeatherDisplay:10.37,2013-01-25 10:54:00,
2013-01-25 05:00:00,7.0,4.4,29.95,NE,45,3.5,3.5,89,0.00,CLR,SKC,0.00,WeatherDisplay:10.37,2013-01-25 11:00:00,
2013-01-25 05:05:00,7.0,4.4,29.95,South,180,3.5,3.5,89,0.00,CLR,SKC,0.00,WeatherDisplay:10.37,2013-01-25 11:05:00,
2013-01-25 05:10:00,7.2,4.6,29.95,North,0,3.5,3.5,89,0.00,CLR,SKC,0.00,WeatherDisplay:10.37,2013-01-25 11:10:00,
2013-01-25 05:15:00,7.2,4.6,29.95,South,180,1.1,1.1,89,0.00,CLR,SKC,0.00,WeatherDisplay:10.37,2013-01-25 11:15:00,
2013-01-25 05:20:00,7.2,4.6,29.95,East,90,2.3,0.0,89,0.00,CLR,SKC,0.00,WeatherDisplay:10.37,2013-01-25 11:20:00,
2013-01-25 05:26:00,7.2,4.6,29.95,South,180,4.6,0.0,89,0.00,CLR,SKC,0.00,WeatherDisplay:10.37,2013-01-25 11:26:00,
2013-01-25 05:31:00,7.2,4.6,29.95,South,180,3.5,3.5,89,0.00,CLR,SKC,0.00,WeatherDisplay:10.37,2013-01-25 11:31:00,
2013-01-25 05:36:00,7.2,4.6,29.94,South,180,2.3,2.3,89,0.00,CLR,SKC,0.00,WeatherDisplay:10.37,2013-01-25 11:36:00,
2013-01-25 05:41:00,7.2,4.6,29.94,South,180,4.6,4.6,89,0.00,CLR,SKC,0.00,WeatherDisplay:10.37,2013-01-25 11:41:00,
2013-01-25 05:46:00,7.3,4.8,29.94,South,180,2.3,0.0,89,0.00,CLR,SKC,0.00,WeatherDisplay:10.37,2013-01-25 11:46:00,
2013-01-25 05:51:00,7.3,4.8,29.94,SW,225,4.6,4.6,89,0.00,CLR,SKC,0.00,WeatherDisplay:10.37,2013-01-25 11:51:00,
2013-01-25 05:57:00,7.3,5.0,29.93,South,180,2.3,2.3,90,0.00,CLR,SKC,0.00,WeatherDisplay:10.37,2013-01-25 11:57:00,
2013-01-25 06:02:00,7.5,5.2,29.93,South,180,5.8,5.8,90,0.00,CLR,SKC,0.00,WeatherDisplay:10.37,2013-01-25 12:02:00,
2013-01-25 06:07:00,7.5,5.2,29.92,South,180,3.5,3.5,90,0.00,CLR,SKC,0.00,WeatherDisplay:10.37,2013-01-25 12:07:00,
2013-01-25 06:12:00,7.5,5.2,29.92,SW,225,4.6,4.6,90,0.00,CLR,SKC,0.00,WeatherDisplay:10.37,2013-01-25 12:12:00,
2013-01-25 06:17:00,7.7,5.4,29.92,South,180,5.8,5.8,90,0.00,CLR,SKC,0.00,WeatherDisplay:10.37,2013-01-25 12:17:00,
2013-01-25 06:23:00,7.9,5.6,29.92,South,180,5.8,5.8,90,0.00,CLR,SKC,0.00,WeatherDisplay:10.37,2013-01-25 12:23:00,
2013-01-25 06:28:00,7.9,5.6,29.92,South,180,5.8,5.8,90,0.00,CLR,SKC,0.00,WeatherDisplay:10.37,2013-01-25 12:28:00,
2013-01-25 06:33:00,8.1,5.7,29.91,South,180,5.8,5.8,90,0.00,CLR,SKC,0.00,WeatherDisplay:10.37,2013-01-25 12:33:00,
2013-01-25 06:38:00,8.1,5.7,29.91,SW,225,5.8,5.8,90,0.00,CLR,SKC,0.00,WeatherDisplay:10.37,2013-01-25 12:38:00,
2013-01-25 06:43:00,8.1,5.7,29.91,SSW,202,5.8,5.8,90,0.00,CLR,SKC,0.00,WeatherDisplay:10.37,2013-01-25 12:43:00,
2013-01-25 06:49:00,8.2,5.9,29.91,SW,225,8.1,8.1,90,0.00,CLR,SKC,0.00,WeatherDisplay:10.37,2013-01-25 12:49:00,
2013-01-25 06:54:00,8.2,5.9,29.90,South,180,6.9,6.9,90,0.00,CLR,SKC,0.00,WeatherDisplay:10.37,2013-01-25 12:54:00,
2013-01-25 06:59:00,8.2,5.9,29.91,SW,225,6.9,6.9,90,0.00,CLR,SKC,0.00,WeatherDisplay:10.37,2013-01-25 12:59:00,
2013-01-25 07:05:00,8.2,5.9,29.90,SSW,202,5.8,5.8,90,0.00,CLR,SKC,0.00,WeatherDisplay:10.37,2013-01-25 13:05:00,
2013-01-25 07:10:00,8.2,5.9,29.90,SW,225,8.1,8.1,90,0.00,CLR,SKC,0.00,WeatherDisplay:10.37,2013-01-25 13:10:00,
2013-01-25 07:15:00,8.4,6.1,29.90,SW,225,6.9,6.9,90,0.00,CLR,SKC,0.00,WeatherDisplay:10.37,2013-01-25 13:15:00,
2013-01-25 07:20:00,8.4,6.1,29.90,SW,225,6.9,6.9,90,0.00,CLR,SKC,0.00,WeatherDisplay:10.37,2013-01-25 13:20:00,
2013-01-25 07:25:00,8.4,6.1,29.89,South,180,5.8,5.8,90,0.00,CLR,SKC,0.00,WeatherDisplay:10.37,2013-01-25 13:25:00,
2013-01-25 07:30:00,8.4,6.1,29.89,South,180,8.1,8.1,90,0.00,CLR,SKC,0.00,WeatherDisplay:10.37,2013-01-25 13:30:00,
2013-01-25 07:35:00,8.4,6.1,29.89,South,180,5.8,5.8,90,0.00,CLR,SKC,0.00,WeatherDisplay:10.37,2013-01-25 13:35:00,
2013-01-25 07:41:00,8.4,6.1,29.89,South,180,5.8,5.8,90,0.00,CLR,SKC,0.00,WeatherDisplay:10.37,2013-01-25 13:41:00,
2013-01-25 07:46:00,8.4,6.1,29.89,SSW,202,5.8,5.8,90,0.00,CLR,SKC,0.00,WeatherDisplay:10.37,2013-01-25 13:46:00,
2013-01-25 07:51:00,8.4,6.1,29.89,SW,225,5.8,5.8,90,0.00,CLR,SKC,0.00,WeatherDisplay:10.37,2013-01-25 13:51:00,
2013-01-25 07:56:00,8.6,6.3,29.88,SW,225,3.5,3.5,90,0.00,CLR,SKC,0.00,WeatherDisplay:10.37,2013-01-25 13:56:00,
2013-01-25 08:01:00,8.6,6.3,29.89,SW,225,3.5,3.5,90,0.00,CLR,SKC,0.00,WeatherDisplay:10.37,2013-01-25 14:01:00,
2013-01-25 08:07:00,8.8,6.4,29.88,SW,225,4.6,4.6,90,0.00,CLR,SKC,0.00,WeatherDisplay:10.37,2013-01-25 14:07:00,
2013-01-25 08:12:00,9.0,6.6,29.89,SW,225,5.8,5.8,90,0.00,CLR,SKC,0.00,WeatherDisplay:10.37,2013-01-25 14:12:00,
2013-01-25 08:17:00,9.0,6.6,29.88,South,180,4.5,4.5,90,0.00,CLR,SKC,0.00,WeatherDisplay:10.37,2013-01-25 14:17:00,
2013-01-25 08:22:00,9.1,6.8,29.88,SSW,202,5.8,5.8,90,0.00,CLR,SKC,0.00,WeatherDisplay:10.37,2013-01-25 14:22:00,
2013-01-25 08:28:00,9.1,6.8,29.88,South,180,4.6,4.6,90,0.00,CLR,SKC,0.00,WeatherDisplay:10.37,2013-01-25 14:28:00,
2013-01-25 08:33:00,9.1,6.8,29.88,SW,225,5.8,5.8,90,0.00,CLR,SKC,0.00,WeatherDisplay:10.37,2013-01-25 14:33:00,
2013-01-25 08:38:00,9.1,6.8,29.88,SW,225,5.8,5.8,90,0.00,CLR,SKC,0.00,WeatherDisplay:10.37,2013-01-25 14:38:00,
2013-01-25 08:43:00,9.1,6.6,29.88,South,180,5.8,5.8,89,0.00,CLR,SKC,0.00,WeatherDisplay:10.37,2013-01-25 14:43:00,
2013-01-25 08:48:00,9.3,6.7,29.88,SW,225,4.6,4.6,89,0.00,CLR,SKC,0.00,WeatherDisplay:10.37,2013-01-25 14:48:00,
2013-01-25 08:54:00,9.3,6.7,29.88,South,180,4.6,4.6,89,0.00,CLR,SKC,0.00,WeatherDisplay:10.37,2013-01-25 14:54:00,
2013-01-25 08:59:00,9.5,6.9,29.87,SW,225,6.9,6.9,89,0.00,CLR,SKC,0.00,WeatherDisplay:10.37,2013-01-25 14:59:00,
2013-01-25 09:04:00,9.3,6.7,29.87,SW,225,8.1,8.1,89,0.00,CLR,SKC,0.00,WeatherDisplay:10.37,2013-01-25 15:04:00,
2013-01-25 09:10:00,9.5,6.9,29.87,South,180,6.9,6.9,89,0.00,CLR,SKC,0.00,WeatherDisplay:10.37,2013-01-25 15:10:00,
2013-01-25 09:15:00,9.7,7.1,29.88,SW,225,6.9,6.9,89,0.00,CLR,SKC,0.00,WeatherDisplay:10.37,2013-01-25 15:15:00,
2013-01-25 09:20:00,9.9,7.3,29.88,SW,225,4.6,4.6,89,0.00,CLR,SKC,0.00,WeatherDisplay:10.37,2013-01-25 15:20:00,
2013-01-25 09:25:00,9.9,7.3,29.88,SW,225,6.9,6.9,89,0.00,CLR,SKC,0.00,WeatherDisplay:10.37,2013-01-25 15:25:00,
2013-01-25 09:30:00,9.9,7.3,29.88,South,180,5.8,5.8,89,0.00,CLR,SKC,0.00,WeatherDisplay:10.37,2013-01-25 15:30:00,
2013-01-25 09:36:00,10.0,7.4,29.87,SW,225,5.8,5.8,89,0.00,CLR,SKC,0.00,WeatherDisplay:10.37,2013-01-25 15:36:00,
2013-01-25 09:41:00,10.2,7.6,29.88,South,180,5.8,5.8,89,0.00,CLR,SKC,0.00,WeatherDisplay:10.37,2013-01-25 15:41:00,
2013-01-25 09:46:00,10.4,7.8,29.88,South,180,3.5,3.5,89,0.00,CLR,SKC,0.00,WeatherDisplay:10.37,2013-01-25 15:46:00,
2013-01-25 09:51:00,10.6,8.0,29.87,SW,225,5.8,5.8,89,0.00,CLR,SKC,0.00,WeatherDisplay:10.37,2013-01-25 15:51:00,
2013-01-25 09:57:00,10.8,7.9,29.87,SW,225,6.9,6.9,88,0.00,CLR,SKC,0.00,WeatherDisplay:10.37,2013-01-25 15:57:00,
2013-01-25 10:02:00,10.8,7.9,29.88,SW,225,3.5,3.5,88,0.00,CLR,SKC,0.00,WeatherDisplay:10.37,2013-01-25 16:02:00,
2013-01-25 10:07:00,11.1,8.3,29.87,South,180,5.8,5.8,88,0.00,CLR,SKC,0.00,WeatherDisplay:10.37,2013-01-25 16:07:00,
2013-01-25 10:12:00,11.3,8.2,29.87,SSW,202,6.9,6.9,87,0.00,CLR,SKC,0.00,WeatherDisplay:10.37,2013-01-25 16:12:00,
2013-01-25 10:17:00,11.5,8.4,29.87,SSW,202,5.8,5.8,87,0.00,CLR,SKC,0.00,WeatherDisplay:10.37,2013-01-25 16:17:00,
2013-01-25 10:22:00,11.5,8.1,29.87,SW,225,8.1,8.1,86,0.00,CLR,SKC,0.00,WeatherDisplay:10.37,2013-01-25 16:22:00,
2013-01-25 10:28:00,11.3,7.9,29.87,SW,225,5.8,5.8,86,0.00,CLR,SKC,0.00,WeatherDisplay:10.37,2013-01-25 16:28:00,
2013-01-25 10:33:00,11.3,7.9,29.87,SW,225,5.8,5.8,86,0.00,CLR,SKC,0.00,WeatherDisplay:10.37,2013-01-25 16:33:00,
2013-01-25 10:38:00,11.7,8.3,29.87,SW,225,5.8,5.8,86,0.00,CLR,SKC,0.00,WeatherDisplay:10.37,2013-01-25 16:38:00,
2013-01-25 10:43:00,12.2,8.8,29.86,SW,225,4.6,4.6,86,0.00,CLR,SKC,0.00,WeatherDisplay:10.37,2013-01-25 16:43:00,
2013-01-25 10:48:00,12.7,9.1,29.87,SW,225,3.5,3.5,85,0.00,CLR,SKC,0.00,WeatherDisplay:10.37,2013-01-25 16:48:00,
2013-01-25 10:54:00,13.1,8.9,29.87,West,270,4.6,4.6,83,0.00,CLR,SKC,0.00,WeatherDisplay:10.37,2013-01-25 16:54:00,
2013-01-25 10:59:00,13.5,9.3,29.87,West,270,5.8,5.8,83,0.00,CLR,SKC,0.00,WeatherDisplay:10.37,2013-01-25 16:59:00,
2013-01-25 11:04:00,13.5,9.0,29.87,SW,225,4.6,4.6,82,0.00,CLR,SKC,0.00,WeatherDisplay:10.37,2013-01-25 17:04:00,
2013-01-25 11:10:00,13.3,8.5,29.87,West,270,8.1,8.1,81,0.00,CLR,SKC,0.00,WeatherDisplay:10.37,2013-01-25 17:10:00,
2013-01-25 11:15:00,13.8,9.1,29.86,SW,225,4.6,4.6,81,0.00,CLR,SKC,0.00,WeatherDisplay:10.37,2013-01-25 17:15:00,
2013-01-25 11:20:00,13.6,8.6,29.86,SW,225,8.1,8.1,80,0.00,CLR,SKC,0.00,WeatherDisplay:10.37,2013-01-25 17:20:00,
2013-01-25 11:25:00,13.8,8.8,29.86,West,270,8.1,8.1,80,0.00,CLR,SKC,0.00,WeatherDisplay:10.37,2013-01-25 17:25:00,
2013-01-25 11:31:00,14.5,9.5,29.86,NW,315,5.8,5.8,80,0.00,CLR,SKC,0.00,WeatherDisplay:10.37,2013-01-25 17:31:00,
2013-01-25 11:40:00,15.8,10.4,29.86,West,270,3.5,3.5,79,0.00,CLR,SKC,0.00,WeatherDisplay:10.37,2013-01-25 17:40:00,
2013-01-25 11:45:00,15.6,9.7,29.86,NW,315,3.5,3.5,77,0.00,CLR,SKC,0.00,WeatherDisplay:10.37,2013-01-25 17:45:00,
2013-01-25 11:50:00,15.4,9.2,29.86,NW,315,8.1,8.1,76,0.00,CLR,SKC,0.00,WeatherDisplay:10.37,2013-01-25 17:50:00,
2013-01-25 11:56:00,15.3,9.0,29.85,North,0,8.1,8.1,76,0.00,CLR,SKC,0.00,WeatherDisplay:10.37,2013-01-25 17:56:00,
2013-01-25 12:01:00,15.3,8.8,29.86,West,270,5.8,5.8,75,0.00,CLR,SKC,0.00,WeatherDisplay:10.37,2013-01-25 18:01:00,
2013-01-25 12:06:00,15.6,9.4,29.85,NW,315,5.8,5.8,76,0.00,CLR,SKC,0.00,WeatherDisplay:10.37,2013-01-25 18:06:00,
2013-01-25 12:11:00,15.1,8.6,29.85,NW,315,6.9,6.9,75,0.00,CLR,SKC,0.00,WeatherDisplay:10.37,2013-01-25 18:11:00,
2013-01-25 12:16:00,15.1,8.9,29.85,North,0,5.8,5.8,76,0.00,CLR,SKC,0.00,WeatherDisplay:10.37,2013-01-25 18:16:00,
2013-01-25 12:21:00,15.4,9.2,29.85,North,0,3.5,3.5,76,0.00,CLR,SKC,0.00,WeatherDisplay:10.37,2013-01-25 18:21:00,
2013-01-25 12:27:00,15.4,9.2,29.85,North,0,4.6,4.6,76,0.00,CLR,SKC,0.00,WeatherDisplay:10.37,2013-01-25 18:27:00,
2013-01-25 12:32:00,15.4,9.2,29.85,North,0,4.6,4.6,76,0.00,CLR,SKC,0.00,WeatherDisplay:10.37,2013-01-25 18:32:00,
2013-01-25 12:37:00,15.1,8.6,29.85,NW,315,8.1,8.1,75,0.00,CLR,SKC,0.00,WeatherDisplay:10.37,2013-01-25 18:37:00,
2013-01-25 12:42:00,14.7,8.5,29.85,NW,315,8.1,8.1,76,0.00,CLR,SKC,0.00,WeatherDisplay:10.37,2013-01-25 18:42:00,
2013-01-25 12:47:00,14.7,8.2,29.85,NNW,338,5.8,5.8,75,0.00,CLR,SKC,0.00,WeatherDisplay:10.37,2013-01-25 18:47:00,
2013-01-25 12:52:00,15.1,8.9,29.85,North,0,6.9,6.9,76,0.00,CLR,SKC,0.00,WeatherDisplay:10.37,2013-01-25 18:52:00,
2013-01-25 12:57:00,15.3,9.0,29.85,NW,315,8.1,8.1,76,0.00,CLR,SKC,0.00,WeatherDisplay:10.37,2013-01-25 18:57:00,
2013-01-25 13:02:00,15.4,9.2,29.86,NNW,338,5.8,5.8,76,0.00,CLR,SKC,0.00,WeatherDisplay:10.37,2013-01-25 19:02:00,
2013-01-25 13:08:00,15.3,9.0,29.86,NW,315,6.9,6.9,76,0.00,CLR,SKC,0.00,WeatherDisplay:10.37,2013-01-25 19:08:00,
2013-01-25 13:13:00,15.3,9.3,29.87,North,0,5.8,5.8,77,0.00,CLR,SKC,0.00,WeatherDisplay:10.37,2013-01-25 19:13:00,
2013-01-25 13:18:00,15.6,10.0,29.87,North,0,5.8,5.8,78,0.00,CLR,SKC,0.00,WeatherDisplay:10.37,2013-01-25 19:18:00,
2013-01-25 13:23:00,16.0,10.3,29.87,North,0,3.5,3.5,78,0.00,CLR,SKC,0.00,WeatherDisplay:10.37,2013-01-25 19:23:00,
2013-01-25 13:28:00,17.1,11.7,29.87,NE,45,2.3,2.3,79,0.00,CLR,SKC,0.00,WeatherDisplay:10.37,2013-01-25 19:28:00,
2013-01-25 13:33:00,18.1,12.4,29.86,NE,45,2.3,2.3,78,0.00,CLR,SKC,0.00,WeatherDisplay:10.37,2013-01-25 19:33:00,
2013-01-25 13:39:00,18.0,11.7,29.87,North,0,5.8,5.8,76,0.00,CLR,SKC,0.00,WeatherDisplay:10.37,2013-01-25 19:39:00,
2013-01-25 13:44:00,17.6,10.7,29.88,West,270,5.8,0.0,74,0.00,CLR,SKC,0.00,WeatherDisplay:10.37,2013-01-25 19:44:00,
2013-01-25 13:49:00,18.5,11.9,29.88,NW,315,3.5,3.5,75,0.00,CLR,SKC,0.00,WeatherDisplay:10.37,2013-01-25 19:49:00,
2013-01-25 13:54:00,17.6,10.4,29.88,NE,45,3.5,3.5,73,0.00,CLR,SKC,0.00,WeatherDisplay:10.37,2013-01-25 19:54:00,
2013-01-25 13:59:00,16.5,9.1,29.88,NW,315,6.9,6.9,72,0.00,CLR,SKC,0.00,WeatherDisplay:10.37,2013-01-25 19:59:00,
2013-01-25 14:04:00,16.5,9.1,29.89,NW,315,5.8,5.8,72,0.00,CLR,SKC,0.00,WeatherDisplay:10.37,2013-01-25 20:04:00,
2013-01-25 14:09:00,18.3,11.4,29.89,NE,45,2.3,0.0,74,0.00,CLR,SKC,0.00,WeatherDisplay:10.37,2013-01-25 20:09:00,
2013-01-25 14:15:00,20.1,12.5,29.89,SE,135,3.5,3.5,72,0.00,CLR,SKC,0.00,WeatherDisplay:10.37,2013-01-25 20:15:00,
2013-01-25 14:20:00,20.7,12.4,29.89,NE,45,1.1,1.1,70,0.00,CLR,SKC,0.00,WeatherDisplay:10.37,2013-01-25 20:20:00,
2013-01-25 14:25:00,18.9,10.0,29.89,SW,225,2.3,2.3,68,0.00,CLR,SKC,0.00,WeatherDisplay:10.37,2013-01-25 20:25:00,
2013-01-25 14:30:00,17.2,9.1,29.90,North,0,2.3,2.3,70,0.00,CLR,SKC,0.00,WeatherDisplay:10.37,2013-01-25 20:30:00,
2013-01-25 14:35:00,16.7,9.5,29.91,East,90,1.1,1.1,73,0.00,CLR,SKC,0.00,WeatherDisplay:10.37,2013-01-25 20:35:00,
2013-01-25 14:40:00,16.5,9.4,29.90,NW,315,5.8,5.8,73,0.00,CLR,SKC,0.00,WeatherDisplay:10.37,2013-01-25 20:40:00,
2013-01-25 14:45:00,16.5,9.4,29.91,WNW,292,5.8,5.8,73,0.00,CLR,SKC,0.00,WeatherDisplay:10.37,2013-01-25 20:45:00,
2013-01-25 14:51:00,17.2,10.1,29.91,East,90,3.5,3.5,73,0.00,CLR,SKC,0.00,WeatherDisplay:10.37,2013-01-25 20:51:00,
2013-01-25 14:56:00,19.0,11.2,29.92,East,90,3.5,3.5,71,0.00,CLR,SKC,0.00,WeatherDisplay:10.37,2013-01-25 20:56:00,
2013-01-25 15:01:00,18.0,9.5,29.92,East,90,1.1,1.1,69,0.00,CLR,SKC,0.00,WeatherDisplay:10.37,2013-01-25 21:01:00,
2013-01-25 15:06:00,18.0,9.5,29.92,East,90,1.6,1.6,69,0.00,CLR,SKC,0.00,WeatherDisplay:10.37,2013-01-25 21:06:00,
2013-01-25 15:11:00,15.3,7.5,29.93,East,90,2.3,2.3,71,0.00,CLR,SKC,0.00,WeatherDisplay:10.37,2013-01-25 21:11:00,
2013-01-25 15:17:00,14.9,7.8,29.93,NE,45,3.5,3.5,73,0.00,CLR,SKC,0.00,WeatherDisplay:10.37,2013-01-25 21:17:00,
2013-01-25 15:22:00,14.7,7.9,29.93,SE,135,3.5,0.0,74,0.00,CLR,SKC,0.00,WeatherDisplay:10.37,2013-01-25 21:22:00,
2013-01-25 15:27:00,14.5,7.8,29.93,NE,45,1.1,0.0,74,0.00,CLR,SKC,0.00,WeatherDisplay:10.37,2013-01-25 21:27:00,
2013-01-25 15:32:00,14.4,7.9,29.93,NW,315,2.3,2.3,75,0.00,CLR,SKC,0.00,WeatherDisplay:10.37,2013-01-25 21:32:00,
2013-01-25 15:37:00,14.2,8.0,29.94,SE,135,5.8,5.8,76,0.00,CLR,SKC,0.00,WeatherDisplay:10.37,2013-01-25 21:37:00,
2013-01-25 15:43:00,14.0,7.8,29.93,East,90,3.5,3.5,76,0.00,CLR,SKC,0.00,WeatherDisplay:10.37,2013-01-25 21:43:00,
2013-01-25 15:48:00,14.0,7.8,29.94,East,90,1.1,1.1,76,0.00,CLR,SKC,0.00,WeatherDisplay:10.37,2013-01-25 21:48:00,
2013-01-25 15:53:00,13.8,7.7,29.94,East,90,3.5,3.5,76,0.00,CLR,SKC,0.00,WeatherDisplay:10.37,2013-01-25 21:53:00,
2013-01-25 15:58:00,13.8,7.7,29.95,SE,135,5.8,5.8,76,0.00,CLR,SKC,0.00,WeatherDisplay:10.37,2013-01-25 21:58:00,
2013-01-25 16:03:00,13.8,7.9,29.95,East,90,2.3,2.3,77,0.00,CLR,SKC,0.00,WeatherDisplay:10.37,2013-01-25 22:03:00,
2013-01-25 16:08:00,13.8,8.2,29.95,East,90,2.3,2.3,78,0.00,CLR,SKC,0.00,WeatherDisplay:10.37,2013-01-25 22:08:00,
2013-01-25 16:13:00,13.8,8.2,29.95,NNW,338,2.3,0.0,78,0.00,CLR,SKC,0.00,WeatherDisplay:10.37,2013-01-25 22:13:00,
2013-01-25 16:18:00,13.6,8.3,29.95,NW,315,1.1,1.1,79,0.00,CLR,SKC,0.00,WeatherDisplay:10.37,2013-01-25 22:18:00,
2013-01-25 16:23:00,13.3,8.3,29.96,North,0,5.8,5.8,80,0.00,CLR,SKC,0.00,WeatherDisplay:10.37,2013-01-25 22:23:00,
2013-01-25 16:29:00,12.9,7.9,29.96,North,0,1.1,0.0,80,0.00,CLR,SKC,0.00,WeatherDisplay:10.37,2013-01-25 22:29:00,
2013-01-25 16:34:00,12.9,8.2,29.96,NW,315,2.3,0.0,81,0.00,CLR,SKC,0.00,WeatherDisplay:10.37,2013-01-25 22:34:00,
2013-01-25 16:39:00,12.7,8.3,29.97,NW,315,5.8,5.8,82,0.00,CLR,SKC,0.00,WeatherDisplay:10.37,2013-01-25 22:39:00,
2013-01-25 16:44:00,12.6,8.1,29.97,NW,315,5.8,5.8,82,0.00,CLR,SKC,0.00,WeatherDisplay:10.37,2013-01-25 22:44:00,
2013-01-25 16:50:00,12.6,8.4,29.98,NW,315,8.1,8.1,83,0.00,CLR,SKC,0.00,WeatherDisplay:10.37,2013-01-25 22:50:00,
2013-01-25 16:55:00,12.6,8.6,29.98,NW,315,6.9,6.9,84,0.00,CLR,SKC,0.00,WeatherDisplay:10.37,2013-01-25 22:55:00,
2013-01-25 17:00:00,12.6,8.6,29.98,NW,315,6.9,6.9,84,0.00,CLR,SKC,0.00,WeatherDisplay:10.37,2013-01-25 23:00:00,
2013-01-25 17:05:00,12.6,8.6,29.98,NW,315,6.9,6.9,84,0.00,CLR,SKC,0.00,WeatherDisplay:10.37,2013-01-25 23:05:00,
2013-01-25 17:10:00,12.4,8.7,29.98,NNW,338,5.8,5.8,85,0.00,CLR,SKC,0.00,WeatherDisplay:10.37,2013-01-25 23:10:00,
2013-01-25 17:16:00,12.2,8.6,29.98,NW,315,5.8,5.8,85,0.00,CLR,SKC,0.00,WeatherDisplay:10.37,2013-01-25 23:16:00,
2013-01-25 17:21:00,12.2,8.6,29.98,NW,315,3.5,3.5,85,0.00,CLR,SKC,0.00,WeatherDisplay:10.37,2013-01-25 23:21:00,
2013-01-25 17:26:00,12.0,8.4,29.98,NW,315,5.8,5.8,85,0.00,CLR,SKC,0.00,WeatherDisplay:10.37,2013-01-25 23:26:00,
2013-01-25 17:31:00,11.8,8.2,29.99,NNW,338,8.1,8.1,85,0.00,CLR,SKC,0.00,WeatherDisplay:10.37,2013-01-25 23:31:00,
2013-01-25 17:36:00,11.8,8.2,29.99,NW,315,6.9,6.9,85,0.00,CLR,SKC,0.00,WeatherDisplay:10.37,2013-01-25 23:36:00,
2013-01-25 17:41:00,11.7,8.0,29.99,NE,45,6.9,6.9,85,0.00,CLR,SKC,0.00,WeatherDisplay:10.37,2013-01-25 23:41:00,
2013-01-25 17:47:00,11.7,8.0,29.99,NW,315,5.8,5.8,85,0.00,CLR,SKC,0.00,WeatherDisplay:10.37,2013-01-25 23:47:00,
2013-01-25 17:52:00,11.7,8.0,29.99,NW,315,4.6,4.6,85,0.00,CLR,SKC,0.00,WeatherDisplay:10.37,2013-01-25 23:52:00,
2013-01-25 17:57:00,11.5,7.8,30.00,NW,315,5.8,5.8,85,0.00,CLR,SKC,0.00,WeatherDisplay:10.37,2013-01-25 23:57:00,
2013-01-25 18:02:00,11.5,7.8,30.00,North,0,4.6,4.6,85,0.00,CLR,SKC,0.00,WeatherDisplay:10.37,2013-01-26 00:02:00,
2013-01-25 18:07:00,11.5,7.8,30.00,North,0,4.6,4.6,85,0.00,CLR,SKC,0.00,WeatherDisplay:10.37,2013-01-26 00:07:00,
2013-01-25 18:12:00,11.5,8.1,30.00,North,0,3.5,3.5,86,0.00,CLR,SKC,0.00,WeatherDisplay:10.37,2013-01-26 00:12:00,
2013-01-25 18:18:00,11.5,8.1,30.00,NNW,338,4.6,4.6,86,0.00,CLR,SKC,0.00,WeatherDisplay:10.37,2013-01-26 00:18:00,
2013-01-25 18:23:00,11.5,8.1,30.00,NE,45,4.6,4.6,86,0.00,CLR,SKC,0.00,WeatherDisplay:10.37,2013-01-26 00:23:00,
2013-01-25 18:28:00,11.5,8.4,30.00,NW,315,4.6,4.6,87,0.00,CLR,SKC,0.00,WeatherDisplay:10.37,2013-01-26 00:28:00,
2013-01-25 18:33:00,11.5,8.4,30.00,NW,315,4.6,4.6,87,0.00,CLR,SKC,0.00,WeatherDisplay:10.37,2013-01-26 00:33:00,
2013-01-25 18:38:00,11.5,8.4,30.01,NNW,338,5.8,5.8,87,0.00,CLR,SKC,0.00,WeatherDisplay:10.37,2013-01-26 00:38:00,
2013-01-25 18:44:00,11.5,8.4,30.01,North,0,5.8,5.8,87,0.00,CLR,SKC,0.00,WeatherDisplay:10.37,2013-01-26 00:44:00,
2013-01-25 18:49:00,11.5,8.6,30.01,NW,315,5.8,5.8,88,0.00,CLR,SKC,0.00,WeatherDisplay:10.37,2013-01-26 00:49:00,
2013-01-25 18:54:00,11.5,8.6,30.02,West,270,8.1,8.1,88,0.00,CLR,SKC,0.00,WeatherDisplay:10.37,2013-01-26 00:54:00,
2013-01-25 18:59:00,11.7,8.8,30.02,North,0,5.8,5.8,88,0.00,CLR,SKC,0.00,WeatherDisplay:10.37,2013-01-26 00:59:00,
2013-01-25 19:04:00,11.7,8.8,30.02,North,0,8.1,8.1,88,0.00,CLR,SKC,0.00,WeatherDisplay:10.37,2013-01-26 01:04:00,
2013-01-25 19:10:00,11.5,8.9,30.02,NE,45,3.5,3.5,89,0.00,CLR,SKC,0.00,WeatherDisplay:10.37,2013-01-26 01:10:00,
2013-01-25 19:15:00,11.5,8.9,30.02,SE,135,2.3,2.3,89,0.00,CLR,SKC,0.00,WeatherDisplay:10.37,2013-01-26 01:15:00,
2013-01-25 19:20:00,11.1,8.3,30.03,North,0,4.6,4.6,88,0.00,CLR,SKC,0.00,WeatherDisplay:10.37,2013-01-26 01:20:00,
2013-01-25 19:25:00,10.9,8.1,30.03,NE,45,3.5,3.5,88,0.00,CLR,SKC,0.00,WeatherDisplay:10.37,2013-01-26 01:25:00,
2013-01-25 19:30:00,10.6,7.7,30.03,NE,45,11.5,11.5,88,0.00,CLR,SKC,0.00,WeatherDisplay:10.37,2013-01-26 01:30:00,
2013-01-25 19:35:00,10.4,7.6,30.03,East,90,6.9,6.9,88,0.00,CLR,SKC,0.00,WeatherDisplay:10.37,2013-01-26 01:35:00,
2013-01-25 19:41:00,10.4,7.6,30.04,East,90,8.1,8.1,88,0.00,CLR,SKC,0.00,WeatherDisplay:10.37,2013-01-26 01:41:00,
2013-01-25 19:46:00,10.4,7.6,30.04,North,0,6.9,6.9,88,0.00,CLR,SKC,0.00,WeatherDisplay:10.37,2013-01-26 01:46:00,
2013-01-25 19:51:00,10.0,7.2,30.04,NW,315,11.5,11.5,88,0.00,CLR,SKC,0.00,WeatherDisplay:10.37,2013-01-26 01:51:00,
2013-01-25 19:56:00,9.9,7.0,30.05,NW,315,8.1,8.1,88,0.00,CLR,SKC,0.00,WeatherDisplay:10.37,2013-01-26 01:56:00,
2013-01-25 20:01:00,9.7,6.8,30.05,NW,315,6.9,6.9,88,0.00,CLR,SKC,0.00,WeatherDisplay:10.37,2013-01-26 02:01:00,
2013-01-25 20:06:00,9.7,6.8,30.05,NW,315,6.9,6.9,88,0.00,CLR,SKC,0.00,WeatherDisplay:10.37,2013-01-26 02:06:00,
2013-01-25 20:11:00,9.3,6.2,30.05,NW,315,9.8,9.8,87,0.00,CLR,SKC,0.00,WeatherDisplay:10.37,2013-01-26 02:11:00,
2013-01-25 20:17:00,9.1,6.1,30.05,NNW,338,5.8,5.8,87,0.00,CLR,SKC,0.00,WeatherDisplay:10.37,2013-01-26 02:17:00,
2013-01-25 20:22:00,9.0,5.6,30.06,NW,315,6.9,6.9,86,0.00,CLR,SKC,0.00,WeatherDisplay:10.37,2013-01-26 02:22:00,
2013-01-25 20:27:00,9.0,5.6,30.05,North,0,10.4,10.4,86,0.00,CLR,SKC,0.00,WeatherDisplay:10.37,2013-01-26 02:27:00,
2013-01-25 20:32:00,8.8,5.4,30.06,NW,315,8.1,8.1,86,0.00,CLR,SKC,0.00,WeatherDisplay:10.37,2013-01-26 02:32:00,
2013-01-25 20:38:00,8.6,5.3,30.06,North,0,5.8,5.8,86,0.00,CLR,SKC,0.00,WeatherDisplay:10.37,2013-01-26 02:38:00,
2013-01-25 20:43:00,8.6,5.3,30.06,North,0,8.1,8.1,86,0.00,CLR,SKC,0.00,WeatherDisplay:10.37,2013-01-26 02:43:00,
2013-01-25 20:48:00,8.8,5.4,30.06,NW,315,6.9,6.9,86,0.00,CLR,SKC,0.00,WeatherDisplay:10.37,2013-01-26 02:48:00,
2013-01-25 20:53:00,8.8,5.4,30.06,NW,315,6.0,6.0,86,0.00,CLR,SKC,0.00,WeatherDisplay:10.37,2013-01-26 02:53:00,
2013-01-25 20:59:00,9.0,5.6,30.06,NNW,338,9.2,9.2,86,0.00,CLR,SKC,0.00,WeatherDisplay:10.37,2013-01-26 02:59:00,
2013-01-25 21:04:00,9.0,5.6,30.06,NNW,338,6.9,6.9,86,0.00,CLR,SKC,0.00,WeatherDisplay:10.37,2013-01-26 03:04:00,
2013-01-25 21:09:00,9.0,5.6,30.06,NW,315,8.1,8.1,86,0.00,CLR,SKC,0.00,WeatherDisplay:10.37,2013-01-26 03:09:00,
2013-01-25 21:14:00,8.8,5.4,30.06,NW,315,10.4,10.4,86,0.00,CLR,SKC,0.00,WeatherDisplay:10.37,2013-01-26 03:14:00,
2013-01-25 21:20:00,8.8,5.4,30.07,NW,315,8.1,8.1,86,0.00,CLR,SKC,0.00,WeatherDisplay:10.37,2013-01-26 03:20:00,
2013-01-25 21:25:00,8.8,5.4,30.07,NNW,338,8.1,8.1,86,0.00,CLR,SKC,0.00,WeatherDisplay:10.37,2013-01-26 03:25:00,
2013-01-25 21:30:00,8.8,5.4,30.07,NW,315,8.1,8.1,86,0.00,CLR,SKC,0.00,WeatherDisplay:10.37,2013-01-26 03:30:00,
2013-01-25 21:35:00,8.8,5.4,30.07,North,0,11.5,11.5,86,0.00,CLR,SKC,0.00,WeatherDisplay:10.37,2013-01-26 03:35:00,
2013-01-25 21:41:00,8.6,5.3,30.07,North,0,10.4,10.4,86,0.00,CLR,SKC,0.00,WeatherDisplay:10.37,2013-01-26 03:41:00,
2013-01-25 21:46:00,8.6,5.3,30.07,North,0,8.1,8.1,86,0.00,CLR,SKC,0.00,WeatherDisplay:10.37,2013-01-26 03:46:00,
2013-01-25 21:51:00,8.6,5.3,30.07,North,0,8.1,8.1,86,0.00,CLR,SKC,0.00,WeatherDisplay:10.37,2013-01-26 03:51:00,
2013-01-25 21:57:00,8.6,5.3,30.07,NW,315,10.4,10.4,86,0.00,CLR,SKC,0.00,WeatherDisplay:10.37,2013-01-26 03:57:00,
2013-01-25 22:02:00,8.6,5.3,30.07,NW,315,8.1,8.1,86,0.00,CLR,SKC,0.00,WeatherDisplay:10.37,2013-01-26 04:02:00,
2013-01-25 22:07:00,8.6,5.3,30.08,NW,315,6.9,6.9,86,0.00,CLR,SKC,0.00,WeatherDisplay:10.37,2013-01-26 04:07:00,
2013-01-25 22:12:00,8.6,5.3,30.08,North,0,10.4,10.4,86,0.00,CLR,SKC,0.00,WeatherDisplay:10.37,2013-01-26 04:12:00,
2013-01-25 22:17:00,8.4,5.1,30.08,NW,315,10.4,10.4,86,0.00,CLR,SKC,0.00,WeatherDisplay:10.37,2013-01-26 04:17:00,
2013-01-25 22:23:00,8.4,5.1,30.08,North,0,12.7,12.7,86,0.00,CLR,SKC,0.00,WeatherDisplay:10.37,2013-01-26 04:23:00,
2013-01-25 22:28:00,8.4,5.1,30.09,North,0,12.7,12.7,86,0.00,CLR,SKC,0.00,WeatherDisplay:10.37,2013-01-26 04:28:00,
2013-01-25 22:33:00,8.4,5.1,30.08,NW,315,9.2,9.2,86,0.00,CLR,SKC,0.00,WeatherDisplay:10.37,2013-01-26 04:33:00,
2013-01-25 22:39:00,8.4,5.1,30.09,NW,315,12.7,12.7,86,0.00,CLR,SKC,0.00,WeatherDisplay:10.37,2013-01-26 04:39:00,
2013-01-25 22:44:00,8.2,4.9,30.09,NW,315,10.4,10.4,86,0.00,CLR,SKC,0.00,WeatherDisplay:10.37,2013-01-26 04:44:00,
2013-01-25 22:49:00,8.1,4.7,30.09,NW,315,11.5,11.5,86,0.00,CLR,SKC,0.00,WeatherDisplay:10.37,2013-01-26 04:49:00,
2013-01-25 22:54:00,8.1,4.7,30.09,North,0,8.1,8.1,86,0.00,CLR,SKC,0.00,WeatherDisplay:10.37,2013-01-26 04:54:00,
2013-01-25 22:59:00,8.1,4.7,30.10,NW,315,10.4,10.4,86,0.00,CLR,SKC,0.00,WeatherDisplay:10.37,2013-01-26 04:59:00,
2013-01-25 23:00:00,8.1,4.7,30.10,NW,315,5.8,5.8,86,0.00,CLR,SKC,0.00,WeatherDisplay:10.37,2013-01-26 05:00:00,
2013-01-25 23:01:00,8.1,4.7,30.10,NW,315,5.8,5.8,86,0.00,CLR,SKC,0.00,WeatherDisplay:10.37,2013-01-26 05:01:00,
2013-01-25 23:02:00,8.1,4.7,30.10,NW,315,5.8,5.8,86,0.00,CLR,SKC,0.00,WeatherDisplay:10.37,2013-01-26 05:02:00,
2013-01-25 23:07:00,8.1,4.7,30.10,NW,315,5.8,5.8,86,0.00,CLR,SKC,0.00,WeatherDisplay:10.37,2013-01-26 05:07:00,
2013-01-25 23:12:00,7.9,4.6,30.11,NW,315,8.1,8.1,86,0.00,CLR,SKC,0.00,WeatherDisplay:10.37,2013-01-26 05:12:00,
2013-01-25 23:17:00,7.9,4.6,30.11,WNW,292,11.5,11.5,86,0.00,CLR,SKC,0.00,WeatherDisplay:10.37,2013-01-26 05:17:00,
2013-01-25 23:22:00,7.9,4.6,30.11,NW,315,9.2,9.2,86,0.00,CLR,SKC,0.00,WeatherDisplay:10.37,2013-01-26 05:22:00,
2013-01-25 23:28:00,7.9,4.6,30.11,NW,315,9.2,9.2,86,0.00,CLR,SKC,0.00,WeatherDisplay:10.37,2013-01-26 05:28:00,
2013-01-25 23:33:00,7.9,4.6,30.12,NW,315,6.9,6.9,86,0.00,CLR,SKC,0.00,WeatherDisplay:10.37,2013-01-26 05:33:00,
2013-01-25 23:38:00,7.7,4.4,30.12,North,0,9.2,9.2,86,0.00,CLR,SKC,0.00,WeatherDisplay:10.37,2013-01-26 05:38:00,
2013-01-25 23:43:00,7.7,4.4,30.12,NW,315,9.2,9.2,86,0.00,CLR,SKC,0.00,WeatherDisplay:10.37,2013-01-26 05:43:00,
2013-01-25 23:48:00,7.7,4.6,30.13,WNW,292,9.2,9.2,87,0.00,CLR,SKC,0.00,WeatherDisplay:10.37,2013-01-26 05:48:00,
2013-01-25 23:54:00,7.7,4.4,30.13,NW,315,6.9,6.9,86,0.00,CLR,SKC,0.00,WeatherDisplay:10.37,2013-01-26 05:54:00,
2013-01-25 23:59:00,7.7,4.6,30.14,NW,315,8.3,8.3,87,0.00,CLR,SKC,0.00,WeatherDisplay:10.37,2013-01-26 05:59:00,